McComb, MS

1:43 PM CDT on June 23, 2017 (GMT -0500)
McComb-Pike County-Lewis

Weather History for KMCB - July, 2012

Change the Weather History Date:

Friday, July 13, 2012

  Actual Average Record
Temperature  
Mean Temperature 76 °F -  
Max Temperature 84 °F 91 °F 102 °F (1980)
Min Temperature 69 °F 70 °F 37 °F (1998)
Cooling Degree Days 12    
Growing Degree Days 26 (Base 50)    
Moisture  
Dew Point 71 °F    
Average Humidity 92    
Maximum Humidity 100    
Minimum Humidity 63    
Precipitation  
Precipitation 1.41 in - - ()
Sea Level Pressure  
Sea Level Pressure 30.03 in    
Wind  
Wind Speed 4 mph (SE)    
Max Wind Speed 22 mph    
Max Gust Speed 29 mph    
Visibility 7 miles    
Events Fog , Rain , Thunderstorm    
Averages and records for this station are not official NWS values.
T = Trace of Precipitation, MM = Missing Value Source: NWS Daily Summary

Daily Weather History Graph

Daily Weather History Graph

Search for Another Location

Airport or City:

Trip Planner

Search our weather history database for the weather conditions in past years. The results will help you decide how hot, cold, wet, or windy it might be!

Date:

Astronomy

Jul. 13, 2012 Rise Set
Actual Time 6:07 AM CDT 8:07 PM CDT
Civil Twilight 5:40 AM CDT 8:34 PM CDT
Nautical Twilight 5:06 AM CDT 9:08 PM CDT
Astronomical Twilight 4:31 AM CDT 9:43 PM CDT
Moon 1:40 AM CDT (7/13) 3:40 PM CDT (7/13)
Length of Visible Light 14h 54m
Length of Day
14h 00m
Waning Crescent, 26% of the Moon is Illuminated
Jul 13
Waning Crescent
Jul 18
New
Jul 26
First Quarter
Aug 1
Full
Aug 9
Last Quarter

Hourly Weather History & Observations

Time (CDT) Temp. Heat Index Dew Point Humidity Pressure Visibility Wind Dir Wind Speed Gust Speed Precip Events Conditions
12:44 AM 69.8 °F - 69.8 °F 100% 30.01 in 10.0 mi ESE 4.6 mph - N/A   Scattered Clouds
12:53 AM 70.0 °F - 69.1 °F 97% 29.99 in 9.0 mi Variable 3.5 mph - N/A   Mostly Cloudy
1:53 AM 70.0 °F - 69.1 °F 97% 30.00 in 9.0 mi Calm Calm - N/A   Scattered Clouds
2:53 AM 70.0 °F - 69.1 °F 97% 30.00 in 8.0 mi Calm Calm - N/A   Partly Cloudy
3:53 AM 70.0 °F - 69.1 °F 97% 30.01 in 8.0 mi Calm Calm - N/A   Mostly Cloudy
4:53 AM 70.0 °F - 69.1 °F 97% 30.00 in 8.0 mi Calm Calm - N/A   Mostly Cloudy
5:46 AM 69.8 °F - 69.8 °F 100% 30.03 in 9.0 mi Calm Calm - N/A   Overcast
5:53 AM 70.0 °F - 69.1 °F 97% 30.01 in 9.0 mi Calm Calm - N/A   Overcast
6:53 AM 71.1 °F - 69.1 °F 93% 30.02 in 10.0 mi ENE 3.5 mph - N/A   Scattered Clouds
7:07 AM 71.6 °F - 69.8 °F 94% 30.03 in 10.0 mi Calm Calm - N/A   Mostly Cloudy
7:53 AM 71.1 °F - 69.1 °F 93% 30.03 in 10.0 mi NE 3.5 mph - N/A   Overcast
8:53 AM 73.0 °F - 70.0 °F 90% 30.04 in 10.0 mi Variable 3.5 mph - N/A   Overcast
9:02 AM 73.4 °F - 69.8 °F 88% 30.05 in 10.0 mi East 4.6 mph - N/A   Overcast
9:53 AM 77.0 °F - 73.0 °F 88% 30.04 in 10.0 mi SE 5.8 mph - 0.01 in   Overcast
10:15 AM 78.8 °F - 73.4 °F 83% 30.05 in 10.0 mi Variable 3.5 mph - N/A   Overcast
10:40 AM 73.4 °F - 71.6 °F 94% 30.07 in 1.5 mi ESE 9.2 mph - 0.10 in Rain Light Rain
10:46 AM 73.4 °F - 71.6 °F 94% 30.09 in 0.5 mi SE 9.2 mph - 0.39 in Fog , Rain Heavy Rain
10:50 AM 73.4 °F - 71.6 °F 94% 30.10 in 0.2 mi SSE 21.9 mph 28.8 mph 0.60 in Fog , Rain , Thunderstorm Heavy Rain
10:53 AM 72.0 °F - 71.1 °F 97% 30.09 in 0.2 mi SSE 18.4 mph 28.8 mph 0.73 in Fog , Rain , Thunderstorm Heavy Rain
10:57 AM 71.6 °F - 71.6 °F 100% 30.10 in 0.5 mi South 13.8 mph 28.8 mph 0.08 in Fog , Rain , Thunderstorm Heavy Rain
11:02 AM 71.6 °F - 71.6 °F 100% 30.09 in 0.8 mi SSE 5.8 mph 17.3 mph 0.13 in Rain , Thunderstorm Heavy Rain
11:13 AM 71.6 °F - 71.6 °F 100% 30.08 in 2.0 mi SW 4.6 mph - 0.19 in Rain , Thunderstorm Thunderstorms and Rain
11:19 AM 71.6 °F - 69.8 °F 94% 30.08 in 3.0 mi Variable 3.5 mph - 0.20 in Rain , Thunderstorm Light Thunderstorms and Rain
11:53 AM 72.0 °F - 70.0 °F 93% 30.06 in 4.0 mi Calm Calm - 0.25 in Rain , Thunderstorm Light Thunderstorms and Rain
12:15 PM 73.4 °F - 71.6 °F 94% 30.06 in 10.0 mi Calm Calm - 0.00 in   Mostly Cloudy
12:53 PM 75.9 °F - 72.0 °F 87% 30.04 in 10.0 mi Calm Calm - 0.00 in   Scattered Clouds
1:53 PM 79.0 °F - 72.0 °F 79% 30.04 in 10.0 mi Calm Calm - N/A   Scattered Clouds
2:53 PM 82.9 °F 88.0 °F 72.0 °F 69% 30.02 in 10.0 mi Calm Calm - N/A   Clear
3:13 PM 82.4 °F 88.2 °F 73.4 °F 74% 30.04 in 10.0 mi NNE 4.6 mph - N/A   Mostly Cloudy
3:34 PM 82.4 °F 88.2 °F 73.4 °F 74% 30.02 in 10.0 mi East 4.6 mph - N/A   Scattered Clouds
3:53 PM 82.9 °F 88.0 °F 72.0 °F 69% 30.00 in 10.0 mi SE 3.5 mph - N/A   Clear
4:53 PM 84.0 °F 88.4 °F 70.0 °F 63% 29.99 in 10.0 mi SSW 4.6 mph - N/A   Partly Cloudy
5:18 PM 78.8 °F - 71.6 °F 78% 30.01 in 10.0 mi West 16.1 mph 20.7 mph N/A Thunderstorm Mostly Cloudy
5:26 PM 75.2 °F - 71.6 °F 89% 30.02 in 2.0 mi SSW 8.1 mph 20.7 mph 0.05 in Rain Heavy Rain
5:30 PM 75.2 °F - 73.4 °F 94% 30.01 in 0.8 mi SW 9.2 mph 17.3 mph 0.23 in Rain Heavy Rain
5:37 PM 73.4 °F - 73.4 °F 100% 30.01 in 0.5 mi SW 4.6 mph 17.3 mph 0.33 in Fog , Rain , Thunderstorm Heavy Rain
5:44 PM 73.4 °F - 73.4 °F 100% 30.01 in 1.0 mi South 3.5 mph - 0.39 in Rain , Thunderstorm Heavy Rain
5:53 PM 73.9 °F - 72.0 °F 93% 29.99 in 2.5 mi Calm Calm - 0.41 in Rain , Thunderstorm Light Rain
5:57 PM 73.4 °F - 71.6 °F 94% 30.00 in 5.0 mi North 4.6 mph - 0.01 in Rain Light Rain
6:53 PM 75.0 °F - 73.9 °F 96% 29.99 in 10.0 mi Calm Calm - 0.01 in   Clear
7:05 PM 75.2 °F - 73.4 °F 94% 30.01 in 5.0 mi Calm Calm - N/A   Partly Cloudy
7:53 PM 75.0 °F - 73.9 °F 96% 29.99 in 10.0 mi Calm Calm - N/A   Clear
8:10 PM 75.2 °F - 73.4 °F 94% 30.01 in 10.0 mi ENE 3.5 mph - N/A   Partly Cloudy
8:53 PM 73.9 °F - 73.0 °F 97% 29.99 in 10.0 mi Calm Calm - N/A   Partly Cloudy
9:08 PM 73.4 °F - 73.4 °F 100% 30.01 in 10.0 mi Calm Calm - N/A   Mostly Cloudy
9:30 PM 73.4 °F - 71.6 °F 94% 30.01 in 10.0 mi Calm Calm - N/A   Scattered Clouds
9:53 PM 73.0 °F - 72.0 °F 96% 30.00 in 10.0 mi Calm Calm - N/A   Clear
10:53 PM 72.0 °F - 71.1 °F 97% 30.01 in 10.0 mi Calm Calm - N/A   Clear
11:53 PM 72.0 °F - 71.1 °F 97% 30.01 in 10.0 mi Calm Calm - N/A   Clear